FW9586 Weather Reports


Display with metric or nautical units.
time (UTC)temp
F
wind
direction
speed
MPH
gust
MPH
rain 1hr
in
rain 24hr
in
rain mn
in
humidity
%
barometer
mb
20221004005257 70 74 2.0 7.0 0.00 0.00 0.00 50 1024.0
20221004004751 70 146 2.0 7.0 0.00 0.00 0.00 52 1024.0
20221004004245 70 71 2.0 4.0 0.00 0.00 0.00 52 1024.0
20221004003740 70 141 2.0 4.0 0.00 0.00 0.00 56 1024.0
20221004003232 69 156 2.0 4.0 0.00 0.00 0.00 55 1024.2
20221004002727 69 155 1.0 4.0 0.00 0.00 0.00 53 1024.3
20221004002452 69 307 1.0 5.0 0.00 0.00 0.00 60 1024.3
20221004001715 68 194 2.0 5.0 0.00 0.00 0.00 61 1024.4
20221004001209 68 144 2.0 6.0 0.00 0.00 0.00 61 1024.5
20221004000704 68 209 2.0 6.0 0.00 0.00 0.00 65 1024.6
20221004000157 67 153 2.0 4.0 0.00 0.00 0.00 65 1024.7
20221003235923 67 123 2.0 4.0 0.00 0.00 0.00 68 1024.8
20221003235145 66 58 2.0 5.0 0.00 0.00 0.00 68 1024.7
20221003234639 66 165 3.0 5.0 0.00 0.00 0.00 67 1024.8
20221003234133 66 209 2.0 4.0 0.00 0.00 0.00 71 1024.8
20221003233627 65 185 2.0 5.0 0.00 0.00 0.00 71 1024.9
20221003233120 65 193 2.0 5.0 0.00 0.00 0.00 68 1024.8
20221003232615 65 202 2.0 6.0 0.00 0.00 0.00 67 1024.8
20221003232340 64 151 2.0 6.0 0.00 0.00 0.00 70 1024.9
20221003231603 64 227 2.0 5.0 0.00 0.00 0.00 72 1024.9
20221003231058 63 182 2.0 5.0 0.00 0.00 0.00 73 1024.9
20221003230552 62 163 2.0 5.0 0.00 0.00 0.00 75 1024.9
20221003230316 62 103 2.0 4.0 0.00 0.00 0.00 74 1024.9
20221003225539 61 98 2.0 5.0 0.00 0.00 0.00 76 1024.8
20221003225034 61 196 2.0 5.0 0.00 0.00 0.00 76 1024.9
20221003225030 61 189 1.0 4.0 0.00 0.00 0.00 77 1024.9
20221003224022 60 79 1.0 3.0 0.00 0.00 0.00 80 1025.0
20221003223516 59 101 2.0 4.0 0.00 0.00 0.00 81 1025.0
20221003223239 58 83 2.0 4.0 0.00 0.00 0.00 83 1025.1
20221003222734 58 86 2.0 4.0 0.00 0.00 0.00 82 1025.1
20221003222228 58 77 2.0 4.0 0.00 0.00 0.00 83 1025.2
20221003221451 57 78 2.0 5.0 0.00 0.00 0.00 83 1025.2
20221003220945 57 60 2.0 5.0 0.00 0.00 0.00 83 1025.3
20221003220440 57 45 2.0 5.0 0.00 0.00 0.00 86 1025.3
20221003220209 56 74 2.0 4.0 0.00 0.00 0.00 86 1025.3
20221003215437 56 65 2.0 5.0 0.00 0.00 0.00 87 1025.2
20221003215207 55 65 2.0 5.0 0.00 0.00 0.00 87 1025.2
20221003214435 55 55 1.0 4.0 0.00 0.00 0.00 89 1025.1
20221003214207 54 61 0.0 3.0 0.00 0.00 0.00 90 1025.1
20221003213705 53 235 0.0 1.0 0.00 0.00 0.00 91 1025.1
20221003212935 52 235 0.0 1.0 0.00 0.00 0.00 92 1025.1
20221003212435 52 235 0.0 2.0 0.00 0.00 0.00 92 1025.1
20221003212206 52 235 1.0 3.0 0.00 0.00 0.00 92 1025.0
20221003211434 52 235 1.0 3.0 0.00 0.00 0.00 92 1025.0
20221003211206 51 62 1.0 3.0 0.00 0.00 0.00 93 1024.8
20221003210435 51 32 1.0 4.0 0.00 0.00 0.00 93 1024.9
20221003205935 50 67 2.0 4.0 0.00 0.00 0.00 93 1024.9
20221003205434 50 74 2.0 4.0 0.00 0.00 0.00 94 1024.8
20221003204935 49 57 2.0 4.0 0.00 0.00 0.00 94 1024.7
20221003204435 49 31 2.0 4.0 0.00 0.00 0.00 94 1024.6
20221003203935 48 47 2.0 4.0 0.00 0.00 0.00 95 1024.5
20221003203435 48 40 2.0 4.0 0.00 0.00 0.00 95 1024.5
20221003203206 47 63 2.0 4.0 0.00 0.00 0.00 95 1024.5
20221003201934 47 57 2.0 3.0 0.00 0.00 0.00 95 1024.4
20221003201436 47 41 2.0 3.0 0.00 0.00 0.00 95 1024.4
20221003200935 47 46 1.0 3.0 0.00 0.00 0.00 95 1024.3
20221003200441 46 27 1.0 4.0 0.00 0.00 0.00 94 1024.2
20221003200436 46 27 1.0 4.0 0.00 0.00 0.00 95 1024.3
20221003195434 46 61 1.0 3.0 0.00 0.00 0.00 94 1024.2
20221003194434 46 71 1.0 2.0 0.00 0.00 0.00 94 1024.0
20221003194205 46 71 1.0 2.0 0.00 0.00 0.00 94 1024.0
20221003193705 46 71 1.0 2.0 0.00 0.00 0.00 94 1024.0
20221003192935 46 71 1.0 2.0 0.00 0.00 0.00 94 1023.9
20221003192707 46 71 1.0 2.0 0.00 0.00 0.00 94 1023.9
20221003191931 46 71 0.0 2.0 0.00 0.00 0.00 94 1024.0
20221003191702 46 71 0.0 2.0 0.00 0.00 0.00 94 1024.0
20221003190937 46 71 0.0 0.0 0.00 0.00 0.00 94 1023.8
20221003190931 46 71 0.0 2.0 0.00 0.00 0.00 94 1023.9
20221003190154 46 71 0.0 0.0 0.00 0.00 0.00 94 1023.9
20221003185648 46 71 0.0 0.0 0.00 0.00 0.00 94 1023.7
20221003185142 46 71 0.0 0.0 0.00 0.00 0.00 94 1023.5
20221003184638 46 71 0.0 0.0 0.00 0.00 0.00 94 1023.6
20221003184402 46 71 0.0 0.0 0.00 0.00 0.00 94 1023.4
20221003183355 46 71 0.0 0.0 0.00 0.00 0.00 94 1023.4
20221003183118 46 71 0.0 1.0 0.00 0.00 0.00 94 1023.5
20221003182342 47 71 0.0 1.0 0.00 0.00 0.00 94 1023.4
20221003181836 47 71 0.0 0.0 0.00 0.00 0.00 94 1023.4
20221003181330 47 71 0.0 2.0 0.00 0.00 0.00 94 1023.5
20221003181055 47 71 0.0 2.0 0.00 0.00 0.00 94 1023.4
20221003180319 47 71 1.0 2.0 0.00 0.00 0.00 94 1023.3
20221003175811 47 71 1.0 2.0 0.00 0.00 0.00 94 1023.1
20221003175536 47 71 1.0 3.0 0.00 0.00 0.00 94 1023.1
20221003174801 47 71 1.0 3.0 0.00 0.00 0.00 94 1022.9
20221003174254 47 71 1.0 3.0 0.00 0.00 0.00 94 1022.9
20221003173748 47 71 1.0 2.0 0.00 0.00 0.00 94 1022.9
20221003173242 47 71 0.0 1.0 0.00 0.00 0.00 94 1022.9
20221003172735 47 71 0.0 0.0 0.00 0.00 0.00 94 1022.9
20221003172230 47 71 0.0 0.0 0.00 0.00 0.00 94 1022.8
20221003171724 47 71 0.0 1.0 0.00 0.00 0.00 94 1022.8
20221003171218 47 71 0.0 1.0 0.00 0.00 0.00 94 1022.8
20221003171214 47 71 0.0 1.0 0.00 0.00 0.00 94 1022.8
20221003170207 47 71 0.0 3.0 0.00 0.00 0.00 93 1022.8
20221003165930 47 71 1.0 3.0 0.00 0.00 0.00 93 1022.6
20221003165404 47 63 2.0 3.0 0.00 0.00 0.00 94 1022.6
20221003164142 47 68 2.0 3.0 0.00 0.00 0.00 93 1022.5
20221003164138 47 68 2.0 3.0 0.00 0.00 0.00 93 1022.5
20221003163131 47 68 2.0 4.0 0.00 0.00 0.00 93 1022.5
20221003162625 47 68 1.0 4.0 0.00 0.00 0.00 93 1022.7
20221003162118 47 71 1.0 3.0 0.00 0.00 0.00 93 1022.6
20221003161843 48 64 2.0 4.0 0.00 0.00 0.00 93 1022.6
20221003161337 48 26 2.0 5.0 0.00 0.00 0.00 93 1022.5
20221003160600 48 35 2.0 5.0 0.00 0.00 0.00 93 1022.5
20221003160054 48 44 3.0 6.0 0.00 0.00 0.00 93 1022.5
20221003155825 48 51 2.0 6.0 0.00 0.00 0.00 93 1022.6
20221003155052 48 27 2.0 4.0 0.00 0.00 0.00 93 1022.9
20221003154558 47 50 2.0 3.0 0.00 0.00 0.00 93 1023.0
20221003154552 48 22 2.0 4.0 0.00 0.00 0.00 94 1022.9
20221003153550 47 46 2.0 3.0 0.00 0.00 0.00 93 1022.9
20221003153051 47 50 2.0 4.0 0.00 0.00 0.00 93 1022.9
20221003152550 47 63 2.0 6.0 0.00 0.00 0.00 93 1023.0
20221003152320 47 87 2.0 6.0 0.00 0.00 0.00 93 1023.0
20221003151550 48 43 2.0 4.0 0.00 0.00 0.00 93 1023.1
20221003150550 48 71 2.0 3.0 0.00 0.00 0.00 93 1023.3
20221003150320 48 69 2.0 3.0 0.00 0.00 0.00 92 1023.4
20221003145549 48 69 1.0 3.0 0.00 0.00 0.00 92 1023.7
20221003145053 48 69 0.0 2.0 0.00 0.00 0.00 92 1023.7
20221003144553 48 69 0.0 1.0 0.00 0.00 0.00 92 1023.7
20221003144053 48 69 0.0 2.0 0.00 0.00 0.00 92 1023.6
20221003143554 48 69 1.0 3.0 0.00 0.00 0.00 92 1023.7
20221003143051 48 69 1.0 3.0 0.00 0.00 0.00 92 1023.6
20221003142551 48 48 0.0 2.0 0.00 0.00 0.00 92 1023.9
20221003142321 48 48 1.0 3.0 0.00 0.00 0.00 92 1023.7
20221003141550 48 48 2.0 3.0 0.00 0.00 0.00 91 1023.9
20221003141319 49 84 2.0 4.0 0.00 0.00 0.00 91 1023.7
20221003140548 49 53 2.0 4.0 0.00 0.00 0.00 91 1023.8
20221003140047 49 45 1.0 3.0 0.00 0.00 0.00 91 1023.9
20221003135546 49 46 1.0 2.0 0.00 0.00 0.00 91 1024.0
20221003135042 49 46 1.0 3.0 0.00 0.00 0.00 91 1024.0
20221003134543 49 46 2.0 4.0 0.00 0.00 0.00 90 1024.0
20221003134043 49 46 2.0 4.0 0.00 0.00 0.00 90 1024.0
20221003133543 49 55 1.0 4.0 0.00 0.00 0.00 90 1024.1
20221003133043 49 314 0.0 2.0 0.00 0.00 0.00 90 1024.3
20221003132544 49 11 1.0 3.0 0.00 0.00 0.00 90 1024.3
20221003132038 49 35 2.0 4.0 0.00 0.00 0.00 90 1024.2
20221003131810 50 34 2.0 5.0 0.00 0.00 0.00 89 1024.0
20221003131039 50 44 2.0 5.0 0.00 0.00 0.00 89 1024.2
20221003130538 50 47 2.0 4.0 0.00 0.00 0.00 89 1024.2
20221003130310 50 26 1.0 4.0 0.00 0.00 0.00 88 1024.3
20221003125539 51 9 1.0 3.0 0.00 0.00 0.00 88 1024.4
20221003125309 51 29 0.0 3.0 0.00 0.00 0.00 87 1024.4
20221003124810 51 55 1.0 2.0 0.00 0.00 0.00 87 1024.3
20221003124039 51 55 1.0 3.0 0.00 0.00 0.00 87 1024.4
20221003123533 51 55 1.0 3.0 0.00 0.00 0.00 87 1024.3
20221003123033 51 53 1.0 3.0 0.00 0.00 0.00 87 1024.2
20221003122533 51 53 2.0 4.0 0.00 0.00 0.00 87 1024.2
20221003122034 52 53 1.0 4.0 0.00 0.00 0.00 86 1024.3
20221003121532 52 23 1.0 2.0 0.00 0.00 0.00 86 1024.3
20221003121303 52 23 1.0 2.0 0.00 0.00 0.00 86 1024.3
20221003121256 52 23 1.0 3.0 0.00 0.00 0.00 86 1024.3
20221003120038 52 50 1.0 3.0 0.00 0.00 0.00 86 1024.1
20221003120032 52 45 1.0 3.0 0.00 0.00 0.00 86 1024.3
20221003115033 52 50 1.0 3.0 0.00 0.00 0.00 86 1024.2
20221003114801 52 50 2.0 3.0 0.00 0.00 0.00 86 1023.9
20221003114301 52 50 2.0 3.0 0.00 0.00 0.00 86 1024.0
20221003113801 52 50 1.0 3.0 0.00 0.00 0.00 85 1024.1
20221003113301 53 50 1.0 3.0 0.00 0.00 0.00 85 1024.2
20221003112801 53 50 1.0 3.0 0.00 0.00 0.00 84 1024.3
20221003112031 53 50 2.0 3.0 0.00 0.00 0.00 83 1024.2
20221003111523 53 50 1.0 3.0 0.00 0.00 0.00 83 1024.3
20221003111248 53 62 0.0 2.0 0.00 0.00 0.00 82 1024.2
20221003110512 54 62 0.0 1.0 0.00 0.00 0.00 82 1024.1
20221003110006 54 62 0.0 2.0 0.00 0.00 0.00 82 1024.2
20221003105730 54 62 0.0 3.0 0.00 0.00 0.00 81 1024.2
20221003104954 54 62 0.0 3.0 0.00 0.00 0.00 81 1024.0
20221003104721 54 62 1.0 3.0 0.00 0.00 0.00 80 1024.1
20221003104443 55 62 1.0 3.0 0.00 0.00 0.00 79 1024.0
20221003103708 55 62 0.0 2.0 0.00 0.00 0.00 78 1024.1
20221003103202 56 62 0.0 0.0 0.00 0.00 0.00 77 1024.0
20221003102424 56 62 0.0 0.0 0.00 0.00 0.00 75 1024.0
20221003101919 56 62 0.0 0.0 0.00 0.00 0.00 75 1024.0
20221003101643 56 62 0.0 2.0 0.00 0.00 0.00 75 1024.0
20221003100906 57 62 0.0 3.0 0.00 0.00 0.00 74 1023.9
20221003100400 57 62 1.0 3.0 0.00 0.00 0.00 74 1023.8
20221003100125 57 76 1.0 3.0 0.00 0.00 0.00 73 1023.8
20221003095348 58 63 1.0 2.0 0.00 0.00 0.00 72 1023.8
20221003095054 58 63 1.0 4.0 0.00 0.00 0.00 71 1023.7
20221003094101 58 73 2.0 4.0 0.00 0.00 0.00 70 1023.5
20221003093324 58 38 2.0 3.0 0.00 0.00 0.00 71 1023.3
20221003093048 58 55 2.0 3.0 0.00 0.00 0.00 71 1023.0
20221003092312 58 86 2.0 5.0 0.00 0.00 0.00 71 1023.0
20221003091806 58 62 3.0 6.0 0.00 0.00 0.00 72 1022.9
20221003091300 58 37 2.0 6.0 0.00 0.00 0.00 71 1022.9
20221003090754 59 61 2.0 5.0 0.00 0.00 0.00 71 1022.8
20221003090519 59 293 2.0 5.0 0.00 0.00 0.00 70 1022.8
20221003085742 59 49 2.0 5.0 0.00 0.00 0.00 70 1022.7
20221003085237 59 51 2.0 4.0 0.00 0.00 0.00 72 1022.6
20221003084730 59 51 2.0 6.0 0.00 0.00 0.00 71 1022.5
20221003084228 59 57 2.0 6.0 0.00 0.00 0.00 71 1022.4
20221003083728 60 41 2.0 5.0 0.00 0.00 0.00 71 1022.3
20221003083227 60 54 2.0 5.0 0.00 0.00 0.00 72 1022.3
20221003082958 60 40 3.0 8.0 0.00 0.00 0.00 73 1022.2
20221003082452 60 38 3.0 9.0 0.00 0.00 0.00 71 1022.2
20221003081723 60 83 3.0 9.0 0.00 0.00 0.00 72 1022.0
20221003081221 60 61 3.0 9.0 0.00 0.00 0.00 71 1022.0
20221003080720 60 52 3.0 9.0 0.00 0.00 0.00 72 1022.0
20221003080220 61 35 3.0 8.0 0.00 0.00 0.00 72 1021.8
20221003075720 61 32 3.0 8.0 0.00 0.00 0.00 71 1021.6
20221003075220 61 51 3.0 8.0 0.00 0.00 0.00 71 1021.8
20221003074718 61 33 3.0 8.0 0.00 0.00 0.00 71 1021.9
20221003074447 62 102 3.0 8.0 0.00 0.00 0.00 70 1021.7
20221003073714 62 74 4.0 8.0 0.00 0.00 0.00 69 1021.7
20221003073214 62 70 3.0 7.0 0.00 0.00 0.00 69 1021.7
20221003072714 62 69 3.0 7.0 0.00 0.00 0.00 70 1021.8
20221003072215 62 58 3.0 6.0 0.00 0.00 0.00 69 1021.8
20221003071714 62 58 3.0 6.0 0.00 0.00 0.00 68 1021.8
20221003071217 63 71 4.0 7.0 0.00 0.00 0.00 68 1021.8
20221003070717 63 78 4.0 8.0 0.00 0.00 0.00 68 1021.8
20221003070218 63 43 4.0 8.0 0.00 0.00 0.00 68 1021.6
20221003065717 63 62 4.0 7.0 0.00 0.00 0.00 68 1021.6
20221003065214 64 71 4.0 8.0 0.00 0.00 0.00 67 1021.6
20221003064714 64 52 4.0 8.0 0.00 0.00 0.00 66 1021.6
20221003064214 64 45 4.0 7.0 0.00 0.00 0.00 65 1021.6
20221003063714 64 64 3.0 6.0 0.00 0.00 0.00 67 1021.6
20221003063214 64 58 3.0 6.0 0.00 0.00 0.00 66 1021.5
20221003062945 64 71 4.0 8.0 0.00 0.00 0.00 66 1021.5
20221003062214 64 59 4.0 10.0 0.00 0.00 0.00 65 1021.5
20221003061714 65 69 5.0 10.0 0.00 0.00 0.00 62 1021.5
20221003061215 65 67 4.0 10.0 0.00 0.00 0.00 63 1021.5
20221003060717 66 82 4.0 9.0 0.00 0.00 0.00 60 1021.4
20221003060711 66 44 4.0 9.0 0.00 0.00 0.00 62 1021.5
20221003055712 66 55 4.0 9.0 0.00 0.00 0.00 61 1021.4
20221003055212 66 42 3.0 9.0 0.00 0.00 0.00 60 1021.5
20221003054943 67 49 2.0 5.0 0.00 0.00 0.00 61 1021.5
20221003054211 66 42 3.0 7.0 0.00 0.00 0.00 60 1021.6
20221003053706 66 95 3.0 7.0 0.00 0.00 0.00 61 1021.5
20221003053159 66 28 3.0 5.0 0.00 0.00 0.00 59 1021.7
20221003052653 66 32 3.0 6.0 0.00 0.00 0.00 61 1021.7
20221003052147 65 44 2.0 6.0 0.00 0.00 0.00 62 1021.7
20221003051641 65 46 2.0 5.0 0.00 0.00 0.00 63 1021.8
20221003051406 65 73 3.0 7.0 0.00 0.00 0.00 62 1021.8
20221003050629 65 52 4.0 7.0 0.00 0.00 0.00 62 1021.7
20221003050123 65 76 4.0 7.0 0.00 0.00 0.00 61 1021.8
20221003045617 66 68 3.0 6.0 0.00 0.00 0.00 59 1021.9
20221003045111 67 51 3.0 8.0 0.00 0.00 0.00 59 1021.9
20221003044605 67 80 3.0 8.0 0.00 0.00 0.00 59 1021.9
20221003044059 67 100 2.0 7.0 0.00 0.00 0.00 60 1022.0
20221003043552 68 42 2.0 7.0 0.00 0.00 0.00 55 1022.2
20221003043047 68 88 2.0 4.0 0.00 0.00 0.00 56 1022.0
20221003042541 68 47 2.0 5.0 0.00 0.00 0.00 55 1021.9
20221003042035 67 65 3.0 6.0 0.00 0.00 0.00 58 1021.9
20221003041529 67 221 3.0 6.0 0.00 0.00 0.00 54 1021.9
20221003041024 67 219 2.0 5.0 0.00 0.00 0.00 56 1021.8
20221003040517 67 156 2.0 6.0 0.00 0.00 0.00 57 1021.9
20221003040011 67 159 2.0 7.0 0.00 0.00 0.00 60 1021.8
20221003035505 67 95 1.0 7.0 0.00 0.00 0.00 59 1021.8
20221003034959 66 65 1.0 5.0 0.00 0.00 0.00 58 1021.9
20221003034724 66 72 2.0 4.0 0.00 0.00 0.00 58 1021.9
20221003033948 67 103 2.0 5.0 0.00 0.00 0.00 58 1022.3
20221003033441 67 130 2.0 5.0 0.00 0.00 0.00 59 1022.2
20221003032935 67 199 2.0 4.0 0.00 0.00 0.00 61 1022.4
20221003032428 66 96 2.0 4.0 0.00 0.00 0.00 62 1022.3
20221003031923 65 55 2.0 5.0 0.00 0.00 0.00 64 1022.4
20221003031417 65 68 3.0 5.0 0.00 0.00 0.00 60 1022.5
20221003030911 65 98 2.0 5.0 0.00 0.00 0.00 61 1022.5
20221003030405 66 59 3.0 7.0 0.00 0.00 0.00 63 1022.6
20221003025859 67 51 3.0 7.0 0.00 0.00 0.00 57 1022.7
20221003025352 67 130 3.0 6.0 0.00 0.00 0.00 61 1022.8
20221003024848 67 229 3.0 7.0 0.00 0.00 0.00 60 1022.8
20221003024341 67 156 3.0 7.0 0.00 0.00 0.00 61 1022.7
20221003023835 67 179 3.0 7.0 0.00 0.00 0.00 64 1022.6
20221003023329 66 158 3.0 7.0 0.00 0.00 0.00 63 1022.6
20221003022823 66 160 3.0 7.0 0.00 0.00 0.00 61 1022.7
20221003022549 67 126 2.0 6.0 0.00 0.00 0.00 61 1022.5
20221003021812 66 101 1.0 4.0 0.00 0.00 0.00 61 1022.8
20221003021305 65 163 1.0 5.0 0.00 0.00 0.00 57 1023.0
20221003020759 65 199 2.0 5.0 0.00 0.00 0.00 57 1023.1
20221003020253 65 196 3.0 5.0 0.00 0.00 0.00 56 1023.3
20221003015747 66 193 3.0 6.0 0.00 0.00 0.00 56 1023.4
20221003015245 66 221 3.0 7.0 0.00 0.00 0.00 57 1023.4
20221003014731 66 210 3.0 7.0 0.00 0.00 0.00 59 1023.5
20221003014225 66 177 3.0 6.0 0.00 0.00 0.00 60 1023.6
20221003013950 66 201 3.0 6.0 0.00 0.00 0.00 60 1023.7
20221003013444 65 221 4.0 7.0 0.00 0.00 0.00 59 1023.7
20221003012706 65 170 4.0 11.0 0.00 0.00 0.00 63 1023.8
20221003012202 65 163 5.0 11.0 0.00 0.00 0.00 62 1023.9
20221003011654 65 207 6.0 12.0 0.00 0.00 0.00 65 1024.0
20221003011420 65 190 7.0 12.0 0.00 0.00 0.00 66 1024.1
20221003010647 65 239 7.0 13.0 0.00 0.00 0.00 65 1024.0
20221003010146 65 210 4.0 13.0 0.00 0.00 0.00 65 1024.1